DM8MH-13 Weather Reports


time (UTC)temp
C
wind
direction
speed
KPH
gust
KPH
rain 1hr
cm
rain 24hr
cm
rain mn
cm
humidity
%
barometer
mb
20260508102114 10 77 0.0 0.0 0.00 0.46 0.00 83 1019.4
20260508101113 10 80 0.0 0.0 0.00 0.46 0.00 84 1019.4
20260508100113 10 82 0.0 0.0 0.00 0.46 0.00 84 1019.4
20260508094113 10 65 0.0 0.0 0.00 0.58 0.00 84 1019.4
20260508093113 10 65 1.6 6.4 0.00 0.58 0.00 83 1019.5
20260508092114 10 25 3.2 8.0 0.00 0.58 0.00 83 1019.4
20260508091113 10 63 1.6 4.8 0.00 0.58 0.00 84 1019.4
20260508090113 10 64 3.2 6.4 0.00 0.58 0.00 84 1019.4
20260508085114 10 74 3.2 8.0 0.00 0.71 0.00 84 1019.4
20260508084113 10 95 3.2 8.0 0.00 0.71 0.00 86 1019.2
20260508083114 10 43 1.6 6.4 0.00 0.71 0.00 87 1019.2
20260508082113 10 40 1.6 4.8 0.00 0.71 0.00 87 1019.2
20260508081113 9 39 0.0 3.2 0.00 0.71 0.00 87 1019.2
20260508080113 9 38 0.0 0.0 0.00 0.71 0.00 88 1019.1
20260508075113 9 38 1.6 3.2 0.00 0.86 0.00 88 1019.1
20260508074114 9 37 0.0 0.0 0.00 0.86 0.00 89 1019.1
20260508073114 8 38 3.2 6.4 0.00 0.86 0.00 89 1019.1
20260508070113 8 41 1.6 4.8 0.00 0.86 0.00 91 1018.9
20260508065114 8 40 0.0 4.8 0.00 1.07 0.00 91 1018.8
20260508064113 8 40 1.6 4.8 0.00 1.07 0.00 91 1018.7
20260508062114 8 40 0.0 3.2 0.00 1.07 0.00 91 1018.6
20260508061113 8 38 0.0 6.4 0.00 1.07 0.00 91 1018.6
20260508060113 8 37 0.0 1.6 0.00 1.07 0.00 92 1018.4
20260508055114 8 37 0.0 3.2 0.00 1.19 0.00 92 1018.4
20260508054113 8 36 0.0 4.8 0.00 1.19 0.00 92 1018.3
20260508053115 8 36 1.6 4.8 0.00 1.19 0.00 92 1018.1
20260508052113 8 45 0.0 4.8 0.00 1.19 0.00 92 1018.0
20260508051113 8 46 3.2 4.8 0.00 1.19 0.00 92 1018.1
20260508045113 8 50 0.0 6.4 0.00 1.42 0.00 92 1017.8
20260508044113 8 47 1.6 4.8 0.00 1.42 0.00 92 1017.8
20260508043113 7 45 1.6 4.8 0.00 1.42 0.00 92 1017.7
20260508042113 7 38 1.6 4.8 0.00 1.42 0.00 92 1017.7
20260508041113 8 33 1.6 4.8 0.00 1.42 0.00 92 1017.7
20260508040113 7 32 0.0 0.0 0.00 1.42 0.00 92 1017.7
20260508035113 7 32 0.0 3.2 0.00 1.63 0.00 92 1017.7
20260508034113 7 32 1.6 3.2 0.00 1.63 0.00 92 1017.7
20260508033113 8 31 0.0 1.6 0.00 1.63 0.00 92 1017.6
20260508032113 8 30 3.2 4.8 0.00 1.63 0.00 92 1017.5
20260508031113 8 29 1.6 4.8 0.00 1.63 0.00 92 1017.5
20260508030113 8 28 0.0 0.0 0.00 1.63 0.00 92 1017.4
20260508025112 8 28 0.0 0.0 0.00 1.96 0.00 92 1017.4
20260508024112 8 27 0.0 0.0 0.00 1.96 0.00 92 1017.3
20260508023112 8 26 0.0 0.0 0.00 1.96 0.00 92 1017.4
20260508022113 8 27 0.0 6.4 0.00 1.96 0.00 92 1017.4
20260508021112 8 38 3.2 6.4 0.00 1.96 0.00 92 1017.4
20260508020112 8 39 1.6 6.4 0.00 1.96 0.00 92 1017.4
20260508015113 8 33 3.2 8.0 0.00 2.03 0.00 92 1017.3
20260508014112 8 28 1.6 6.4 0.00 2.03 0.00 92 1017.4
20260508013113 8 25 0.0 1.6 0.00 2.03 0.00 92 1017.3
20260508012112 8 25 1.6 3.2 0.00 2.03 0.00 92 1017.4
20260508011112 8 25 0.0 0.0 0.00 2.03 0.00 92 1017.4
20260508010112 8 25 0.0 0.0 0.00 2.03 0.00 92 1017.4
20260508005113 8 25 0.0 0.0 0.00 2.03 0.00 92 1017.5
20260508004112 8 25 0.0 0.0 0.00 2.03 0.00 92 1017.6
20260508003113 8 25 0.0 0.0 0.00 2.03 0.00 92 1017.6
20260508002113 8 25 0.0 0.0 0.00 2.03 0.00 92 1017.6
20260508001112 8 25 0.0 0.0 0.00 2.03 0.00 92 1017.6
20260508000112 8 25 0.0 0.0 0.00 2.03 0.00 92 1017.6
20260507235112 8 25 0.0 0.0 0.00 2.03 0.00 92 1017.4
20260507234113 8 25 0.0 0.0 0.00 2.03 0.00 92 1017.6
20260507233113 8 25 0.0 0.0 0.00 2.03 0.00 92 1017.4
20260507232113 8 25 0.0 0.0 0.00 2.03 0.00 92 1017.3
20260507231112 8 25 0.0 0.0 0.00 2.03 0.00 92 1017.4
20260507230112 8 25 0.0 0.0 0.00 2.03 0.00 92 1017.5
20260507225112 8 25 0.0 0.0 0.00 2.03 0.00 92 1017.5
20260507224112 8 25 0.0 0.0 0.00 2.03 0.00 91 1017.5
20260507223113 8 25 0.0 0.0 0.00 2.03 0.00 91 1017.3
20260507222112 8 25 0.0 0.0 0.00 2.03 0.00 92 1017.3
20260507221112 8 25 0.0 0.0 0.00 2.03 0.00 92 1017.4
20260507220112 8 26 0.0 0.0 0.00 2.03 0.00 92 1017.4
20260507215112 8 25 0.0 0.0 0.00 2.03 2.03 92 1017.4
20260507214113 8 26 0.0 0.0 0.00 2.03 2.03 92 1017.3
20260507213112 8 25 0.0 0.0 0.00 2.03 2.03 91 1017.3
20260507212111 8 26 0.0 0.0 0.00 2.03 2.03 91 1017.4
20260507211112 8 26 0.0 0.0 0.00 2.03 2.03 91 1017.4
20260507210111 8 26 0.0 0.0 0.00 2.03 2.03 91 1017.2
20260507205112 8 25 0.0 0.0 0.00 2.13 2.03 91 1017.2
20260507204111 8 26 0.0 1.6 0.00 2.13 2.03 91 1017.0
20260507203112 8 26 0.0 0.0 0.03 2.13 2.03 91 1016.9
20260507202111 8 25 0.0 3.2 0.03 2.13 2.03 91 1017.0
20260507201111 8 26 0.0 3.2 0.03 2.13 2.03 91 1016.9
20260507200112 8 26 0.0 0.0 0.03 2.13 2.03 91 1016.8
20260507195111 8 26 0.0 0.0 0.03 2.13 2.03 91 1016.8
20260507194112 8 26 0.0 0.0 0.03 2.13 2.03 91 1016.6
20260507193112 8 26 0.0 0.0 0.00 2.11 2.03 91 1016.5
20260507192111 8 26 0.0 1.6 0.00 2.11 2.03 91 1016.4
20260507191112 8 27 1.6 4.8 0.00 2.11 2.03 91 1016.4
20260507190112 8 22 0.0 4.8 0.00 2.11 2.03 91 1016.3
20260507185112 8 23 0.0 0.0 0.00 2.21 2.03 91 1016.3
20260507184112 8 24 0.0 0.0 0.00 2.21 2.03 91 1016.2
20260507183112 8 24 0.0 0.0 0.00 2.21 2.03 91 1016.2
20260507182111 8 25 0.0 0.0 0.00 2.18 2.03 91 1016.1
20260507181111 8 25 1.6 4.8 0.00 2.21 2.03 91 1016.0
20260507180111 8 31 0.0 3.2 0.00 2.21 2.03 90 1015.8
20260507175111 8 32 0.0 0.0 0.00 2.57 2.03 90 1015.7
20260507174111 8 32 0.0 0.0 0.00 2.57 2.03 90 1015.7
20260507173112 8 32 0.0 4.8 0.00 2.57 2.03 90 1015.7
20260507172112 8 32 0.0 4.8 0.00 2.57 2.03 90 1015.6
20260507171111 8 24 3.2 8.0 0.03 2.57 2.03 90 1015.5
20260507170111 9 15 0.0 6.4 0.03 2.57 2.03 90 1015.4
20260507165111 9 360 0.0 4.8 0.03 2.57 2.03 90 1015.5
20260507164111 9 18 3.2 6.4 0.05 2.57 2.03 90 1015.5
20260507163112 9 347 3.2 8.0 0.05 2.57 2.03 90 1015.4
20260507162111 9 22 3.2 9.7 0.05 2.57 2.03 90 1015.4
20260507161111 9 329 1.6 6.4 0.05 2.54 2.01 91 1015.4
20260507160111 9 331 0.0 4.8 0.05 2.54 2.01 91 1015.3
20260507155111 9 22 1.6 8.0 0.05 3.07 2.01 90 1015.3
20260507154112 9 5 3.2 6.4 0.05 3.05 1.98 91 1015.2
20260507153112 9 19 1.6 4.8 0.05 3.05 1.98 91 1015.0
20260507152111 9 24 3.2 9.7 0.05 3.05 1.98 91 1015.0
20260507151115 9 19 1.6 6.4 0.05 3.05 1.96 91 1015.0
20260507150111 9 340 1.6 9.7 0.05 3.05 1.96 91 1014.9
20260507145111 9 338 1.6 4.8 0.08 3.17 1.96 91 1014.9
20260507144111 9 345 3.2 11.3 0.08 3.15 1.93 91 1014.8
20260507143111 9 330 1.6 8.0 0.10 3.15 1.93 91 1014.8
20260507142111 8 350 1.6 4.8 0.10 3.15 1.93 91 1014.7
20260507141113 8 343 4.8 9.7 0.08 3.12 1.91 91 1014.6
20260507140111 8 10 3.2 9.7 0.10 3.12 1.91 91 1014.6
20260507135111 8 355 4.8 9.7 0.10 3.10 1.88 91 1014.6
20260507134110 8 326 3.2 9.7 0.10 3.07 1.85 91 1014.5
20260507133111 8 32 1.6 8.0 0.08 3.05 1.83 91 1014.4
20260507131111 8 360 4.8 8.0 0.10 3.05 1.83 91 1014.2
20260507130111 8 19 3.2 6.4 0.08 3.02 1.80 91 1014.2
20260507125111 8 355 3.2 11.3 0.08 3.00 1.78 91 1014.1
20260507124110 8 331 3.2 8.0 0.08 2.97 1.75 91 1014.0
20260507123111 8 342 1.6 8.0 0.10 2.97 1.75 92 1013.9
20260507122110 8 333 3.2 9.7 0.10 2.97 1.75 92 1013.7
20260507121111 8 36 3.2 8.0 0.10 2.95 1.73 92 1013.7
20260507120110 8 50 1.6 9.7 0.15 2.95 1.73 92 1013.6
20260507115111 8 355 1.6 6.4 0.13 2.92 1.70 92 1013.5
20260507114111 8 46 1.6 8.0 0.15 2.90 1.68 92 1013.5
20260507113111 8 36 1.6 6.4 0.15 2.87 1.65 92 1013.3
20260507112111 8 9 1.6 8.0 0.15 2.87 1.65 92 1013.2
20260507111110 8 355 1.6 8.0 0.15 2.84 1.63 92 1013.3
20260507105111 8 336 1.6 8.0 0.15 2.79 1.57 92 1013.1
20260507104110 8 38 1.6 6.4 0.13 2.77 1.55 92 1013.1
20260507103111 8 309 0.0 6.4 0.13 2.74 1.52 92 1013.0